Weather History for Cleveland Cuyahoga, OH

Change the Weather History Date:

Wednesday, April 10, 2013

  Actual Average Record
Temperature  
Mean Temperature 56 °F -  
Max Temperature 69 °F 54 °F 84 °F (2011)
Min Temperature 42 °F 39 °F 17 °F (1997)
Degree Days  
Heating Degree Days 10    
Growing Degree Days 6 (Base 50)    
Moisture  
Dew Point 49 °F    
Average Humidity 88    
Maximum Humidity 100    
Minimum Humidity 72    
Precipitation  
Precipitation 0.00 in - - ()
Sea Level Pressure  
Sea Level Pressure 29.88 in    
Wind  
Wind Speed 10 mph (ENE)    
Max Wind Speed 22 mph    
Max Gust Speed 34 mph    
Visibility 5 miles    
Events Fog , Rain , Thunderstorm    
Averages and records for this station are not official NWS values.
T = Trace of Precipitation, MM = Missing Value Source: NWS Daily Summary

Daily Weather History Graph

Daily Weather History Graph

Search for Another Location

Airport:

Trip Planner

Search our weather history database for the weather conditions in past years. The results will help you decide how hot, cold, wet, or windy it might be!

Date:

Astronomy

Apr. 10, 2013 Rise Set
Actual Time 6:53 AM EDT 8:01 PM EDT
Civil Twilight 6:25 AM EDT 8:29 PM EDT
Nautical Twilight 5:51 AM EDT 9:03 PM EDT
Astronomical Twilight 5:15 AM EDT 9:39 PM EDT
Moon 6:48 AM EDT (4/10) 8:36 PM EDT (4/10)
Length of Visible Light 14h 04m
Length of Day
13h 07m
New Moon, 0% of the Moon is Illuminated
Apr 10
New Moon
Apr 18
First Quarter
Apr 25
Full
May 2
Last Quarter
May 9
New

Hourly Weather History & Observations

Time (EDT) Temp. Windchill Dew Point Humidity Pressure Visibility Wind Dir Wind Speed Gust Speed Precip Events Conditions
7:45 AM 59.0 °F - 50.0 °F 72% 29.90 in 10.0 mi SSE 9.2 mph - N/A   Overcast
8:45 AM 62.6 °F - 53.6 °F 72% 29.90 in 10.0 mi SW 6.9 mph - N/A   Overcast
9:45 AM 66.2 °F - 57.2 °F 73% 29.88 in 10.0 mi SSW 6.9 mph - N/A   Overcast
10:45 AM 51.8 °F - 48.2 °F 88% 29.90 in 4.0 mi ENE 6.9 mph - N/A   Overcast
11:45 AM 55.4 °F - 51.8 °F 88% 29.89 in 5.0 mi NNE 8.1 mph - N/A Rain Light Rain
12:45 PM 57.2 °F - 55.4 °F 94% 29.89 in 4.0 mi NE 5.8 mph - N/A   Overcast
2:45 PM 69.8 °F - 60.8 °F 73% 29.83 in 4.0 mi SW 9.2 mph - N/A   Overcast
3:30 PM 50.0 °F - 46.4 °F 87% 29.86 in 2.5 mi NNE 12.7 mph - N/A   Overcast
3:45 PM 48.2 °F - 46.4 °F 93% 29.85 in 2.5 mi ENE 8.1 mph - N/A   Overcast
4:10 PM 53.6 °F - 50.0 °F 88% 29.83 in 3.0 mi East 6.9 mph - N/A   Overcast
4:45 PM 50.0 °F - 46.4 °F 87% 29.94 in 1.5 mi WNW 21.9 mph 34.5 mph N/A Rain , Thunderstorm Thunderstorms and Rain
5:35 PM 51.8 °F - 50.0 °F 94% 29.82 in 3.0 mi ESE 11.5 mph - N/A Rain Light Rain
5:45 PM 51.8 °F - 50.0 °F 94% 29.79 in 3.0 mi East 11.5 mph - N/A Rain Light Rain
6:10 PM 50.0 °F - 48.2 °F 94% 29.85 in 0.5 mi North 17.3 mph 25.3 mph N/A Fog , Rain Light Rain
6:45 PM 46.4 °F 40.7 °F 44.6 °F 93% 29.90 in 1.5 mi NE 12.7 mph - N/A Rain Light Rain
7:45 PM 42.8 °F 38.0 °F 41.0 °F 93% 29.95 in 2.5 mi SSE 8.1 mph - N/A Rain Light Rain
8:45 PM 42.8 °F 35.8 °F 41.0 °F 93% 29.91 in 2.5 mi East 13.8 mph - N/A Rain Rain
9:45 PM 42.8 °F 36.2 °F 42.8 °F 100% 29.93 in 15.0 mi NE 12.7 mph - N/A   Overcast
10:45 PM 44.6 °F 38.8 °F 42.8 °F 93% 29.88 in 15.0 mi NE 11.5 mph - N/A   Overcast